User: anonymous   Login
Location: Izdebno
(52.6670°N, 16.2170°E)
Time: 09:38:46
(UTC+01:00)
Language:

Explorer 11/Cluster Stage 4 - Orbit

View from above orbital plane
View from above orbital plane
View from above satellite
View from above satellite

Ground track
Ground track

The orbit data is extracted from the following two-line orbital elements,

1 00107U 61013A   24055.82443265  .00006642  00000-0  84485-3 0  9999
2 00107  28.7890 113.5258 0525104 213.5081 143.1198 14.14270622156622
Epoch (UTC): 24 February 2024 19:47:10
Eccentricity: 0.0525104
inclination: 28.7890°
perigee height: 465 km
apogee height: 1224 km
right ascension of ascending node: 113.5258°
argument of perigee: 213.5081°
revolutions per day: 14.14270622
mean anomaly at epoch: 143.1198°
orbit number at epoch: 15662

The dashed part of the orbit path shows where the satellite is in the earth's shadow,  

DLR